Enrico Bonaventura

Chefscout - Pro Patria
5 Mär 2028
Sonntag
Verarbeitung

Persönlichkeit

Anpassungsfähigkeit (7) Ehrgeiz (8) Kontroverse (13) Loyalität (19) Druck (3) Professionalität (9) Fairness (19) Temperament (10)

Profil

Trainerstil Demokratisch
Lizenz Nationale A
Entschlossenheit 9
Menschenführung 9
Motivation 6
Disziplin 2
Arbeitszufriedenheit
100%
Ermüdung
0%
Rolle Chefscout
Gehalt 52.3K p/W
Vertrag 14.03.2029

Leistung

Verhalten Gut
Trainingseffektivität
18%
Spielerentwicklung
30%
Verletzungsprävention
20%
Taktische Umsetzung
10%

Letzte Ereignisse

Spieler begutachtet 28T her
Nahm an einer Scouting-Besprechung teil 35T her
Nimmt an Fortbildung teil 42T her
Nahm an einer Scouting-Besprechung teil 42T her
Nimmt an Fortbildung teil 42T her
Nimmt an Fortbildung teil 42T her
Nimmt an Fortbildung teil 42T her
Nimmt an Fortbildung teil 49T her

Aktuell beobachtet

177
Spieler Verein Status Fähigkeit Vertrauen Beobachtet Zuletzt beobachtet Letzte Stimme
Enrico Celeghin Trapani Aktiv 95 / 101 40% 3 31.01.2028 -
Mauro Valiente Estudiantes Aktiv 129 / 124 40% 1 31.01.2028 -
Giovanni Pinto Casarano Aktiv 84 / 87 37% 1 07.01.2028 -
Cristhián Rivas Estudiantes de Merida Aktiv 121 / 116 40% 2 30.08.2027 -
Cristopher Rodríguez Estudiantes de Merida Aktiv 116 / 106 40% 1 30.08.2027 -
Santiago Vera Almirante Brown Aktiv 128 / 126 40% 3 26.08.2027 -
Brian Farioli Estudiantes Aktiv 127 / 125 40% 4 25.08.2027 -
Francisco Facello Chacarita Juniors Aktiv 91 / 119 40% 2 25.08.2027 -
Carlos Sosa Carabobo Aktiv 103 / 120 40% 3 25.08.2027 -
Lucas Cano All Boys Aktiv 137 / 106 40% 1 25.08.2027 -
Andrés Tello Deportes Quindio Aktiv 93 / 114 40% 1 24.08.2027 -
Franco Camargo Gimnasia y Esgrima Aktiv 89 / 119 40% 1 24.08.2027 -
Mariano Santiago Almirante Brown Aktiv 138 / 104 40% 1 23.08.2027 -
Nicolás Mosca Atlanta Aktiv 110 / 117 40% 1 23.08.2027 -
Santiago Valenzuela Chaco For Ever Aktiv 102 / 101 40% 1 23.08.2027 -
Kléri Serber Hamrun Spartans Aktiv 116 / 104 40% 1 23.08.2027 -
Federico Recalde Madryn Aktiv 119 / 110 40% 2 22.08.2027 -
Agustín Chopitea Colon Aktiv 106 / 117 40% 1 22.08.2027 -
Matías Ruiz Díaz Estudiantes Aktiv 114 / 112 40% 1 22.08.2027 -
Enzo Martínez Almagro Aktiv 98 / 111 40% 2 21.08.2027 -
Lautaro Montoya Gimnasia y Tiro Aktiv 115 / 115 40% 2 21.08.2027 -
Erickson Gallardo Zamora Aktiv 124 / 123 40% 1 21.08.2027 -
Maico Quiroz Güemes Aktiv 105 / 113 40% 1 21.08.2027 -
Zoumana Simpara Djoliba Aktiv 89 / 106 40% 1 21.08.2027 -
Lautaro Disanto Defensores Unidos Aktiv 119 / 101 40% 2 20.08.2027 -
Mario Gargiulo Campobasso Aktiv 108 / 101 40% 2 19.08.2027 -
Tiago Casasola Union Brescia Aktiv 119 / 114 40% 3 19.08.2027 -
Jérémie Broh Giugliano Aktiv 110 / 105 40% 4 18.08.2027 -
Nazareno Fernández Colombo Los Andes Aktiv 129 / 113 40% 1 18.08.2027 -
Davide Balestrero Union Brescia Aktiv 112 / 110 40% 4 17.08.2027 -
Gianluca D'Auria Potenza Aktiv 95 / 106 40% 2 17.08.2027 -
Damián Adín San Miguel Aktiv 101 / 111 40% 1 16.08.2027 -
Maximiliano Rueda Patronato Aktiv 98 / 100 40% 1 15.08.2027 -
Bryan Rivera Estudiantes de Merida Aktiv 101 / 107 40% 4 14.08.2027 -
Richard Figueroa Deportivo Lara Aktiv 100 / 99 40% 1 14.08.2027 -
Michele Cavion Vicenza Aktiv 93 / 100 40% 3 13.08.2027 -
Milton Gerez Güemes Aktiv 108 / 115 40% 2 13.08.2027 -
Albert Zambrano Caracas Aktiv 95 / 113 40% 1 13.08.2027 -
Filippo Costa Vicenza Aktiv 126 / 126 40% 6 12.08.2027 -
Ulises Vera Quilmes Aktiv 134 / 116 40% 3 12.08.2027 -
Ronaldo Peña Deportivo Lara Aktiv 97 / 109 40% 2 12.08.2027 -
Assane Ndiaye Cultural Leonesa Aktiv 93 / 114 40% 1 12.08.2027 -
Giacomo Zecca Torres Aktiv 96 / 108 40% 1 11.08.2027 -
Tomás Castro Ponce Atlanta Aktiv 108 / 114 40% 1 11.08.2027 -
Enzo Acosta Estudiantes Aktiv 93 / 113 40% 3 10.08.2027 -
Filippo Bertolotti Alcione Milano Aktiv 98 / 94 40% 1 09.08.2027 -
Marco Piccoli Sambenedettese Aktiv 104 / 111 40% 1 09.08.2027 -
Rodney Chirinos Deportivo Lara Aktiv 119 / 103 40% 1 09.08.2027 -
Tomás Fernández Aldosivi Aktiv 111 / 127 40% 2 07.08.2027 -
Alex Gilbey Milton Keynes Dons Aktiv 91 / 108 40% 1 07.08.2027 -
Pietro Ciotti Cosenza Aktiv 95 / 109 40% 1 07.08.2027 -
David Veliz Güemes Aktiv 120 / 103 40% 2 06.08.2027 -
Michele Emmausso Cosenza Aktiv 93 / 104 40% 1 06.08.2027 -
Jordan Graham Crawley Town Aktiv 123 / 116 40% 7 04.08.2027 -
Emanuele Cicerelli Catania Aktiv 117 / 113 40% 3 02.08.2027 -
Harry Cornick AFC Wimbledon Aktiv 93 / 106 40% 2 02.08.2027 -
Jorge Grant Salford City Aktiv 97 / 103 40% 1 02.08.2027 -
Fede Varela Floriana Aktiv 95 / 97 40% 1 02.08.2027 -
Santiago Briñone San Martín Aktiv 132 / 100 40% 1 01.08.2027 -
Samuele Careccia Pergolettese Aktiv 90 / 106 40% 1 01.08.2027 -
Franco Malagueño Colegiales Aktiv 96 / 111 40% 1 01.08.2027 -
Federico Sena Estudiantes Aktiv 86 / 111 40% 2 31.07.2027 -
Manuele Malotti Livorno Aktiv 97 / 98 40% 1 31.07.2027 -
Juan Carlos Azócar Caracas Aktiv 115 / 98 40% 1 31.07.2027 -
Yvo Calleros Madryn Aktiv 95 / 105 40% 1 30.07.2027 -
Aliou Diakité Real Bamako Aktiv 88 / 94 40% 1 30.07.2027 -
Abdoulaye Diarra Djoliba Aktiv 93 / 102 40% 2 29.07.2027 -
Braian Aranda Agropecuario Argentino Aktiv 90 / 105 40% 1 29.07.2027 -
Yannick Woudstra Cittadella Aktiv 97 / 96 40% 1 29.07.2027 -
Michael Liguori Catania Aktiv 105 / 113 40% 1 29.07.2027 -
Rui Costa Port Vale Aktiv 100 / 110 40% 1 28.07.2027 -
Juan José Tello Deportivo Cali Aktiv 110 / 106 40% 1 28.07.2027 -
Loris Zonta Vicenza Aktiv 93 / 116 40% 2 27.07.2027 -
Maximiliano Ribero Central Norte Aktiv 124 / 105 40% 1 27.07.2027 -
Davide Di Molfetta Union Brescia Aktiv 131 / 113 40% 1 26.07.2027 -
Rodrigo Melo Estudiantes Aktiv 140 / 105 40% 1 24.07.2027 -
George Evans Bristol Rovers Aktiv 99 / 119 40% 4 23.07.2027 -
Santiago Gutiérrez Alvarado Aktiv 130 / 93 40% 1 23.07.2027 -
Eugenio D'Ursi Salernitana Aktiv 99 / 98 40% 1 23.07.2027 -
Taylor Allen Wycombe Wanderers Aktiv 110 / 115 40% 1 23.07.2027 -
Lorenzo Paolucci Audace Cerignola Aktiv 109 / 115 40% 3 22.07.2027 -
Niccolò Zanellato Casarano Aktiv 97 / 105 40% 1 21.07.2027 -
Accursio Bentivegna Casertana Aktiv 105 / 104 40% 2 20.07.2027 -
Nicolò Contiliano Cosenza Aktiv 94 / 105 40% 1 19.07.2027 -
Alfredo Bifulco Campobasso Aktiv 90 / 104 40% 3 18.07.2027 -
Aaron Drinan Swindon Town Aktiv 122 / 107 40% 1 18.07.2027 -
Juan Yangali San Telmo Aktiv 125 / 107 40% 1 17.07.2027 -
Nicolás Heiz Maipú Aktiv 91 / 112 40% 1 17.07.2027 -
Javier Iritier San Telmo Aktiv 85 / 96 40% 1 17.07.2027 -
Destiny Efosa Egharevba Picerno Aktiv 94 / 106 40% 1 16.07.2027 -
Axel Batista Quilmes Aktiv 119 / 126 40% 1 16.07.2027 -
Samuele Parlati Alcione Milano Aktiv 123 / 103 40% 1 15.07.2027 -
Nicolás Barrientos All Boys Aktiv 104 / 111 40% 1 14.07.2027 -
Nichita Moțpan SKA Khabarovsk Aktiv 83 / 95 40% 1 14.07.2027 -
Jack Payne Crawley Town Aktiv 94 / 99 40% 2 11.07.2027 -
Lucas Chiozza Alvarado Aktiv 91 / 116 40% 2 10.07.2027 -
Robert Murić Floriana Aktiv 114 / 112 40% 1 10.07.2027 -
Germán Cervera Alvarado Aktiv 124 / 110 40% 1 10.07.2027 -
Franco Díaz Temperley Aktiv 130 / 133 40% 1 09.07.2027 -
Romeo Giovannini Vis Pesaro Aktiv 80 / 90 40% 1 09.07.2027 -
Léo Abreu Picerno Aktiv 85 / 93 40% 1 09.07.2027 -
Tyler Walton Bromley Aktiv 91 / 81 40% 1 08.07.2027 -
Lamine Diakité Djoliba Aktiv 94 / 99 40% 1 07.07.2027 -
Braian Álvarez Arsenal Tula Aktiv 126 / 91 40% 1 07.07.2027 -
Mattia Maita Benevento Aktiv 111 / 128 40% 2 06.07.2027 -
Gino Olguín Ferro Carril Oeste Aktiv 91 / 121 40% 1 06.07.2027 -
Malick Berthé AS Police Aktiv 100 / 100 40% 1 06.07.2027 -
Gianluca Germinario Pineto Aktiv 95 / 112 40% 1 06.07.2027 -
Marco Bertoli Ospitaletto Aktiv 92 / 100 40% 1 05.07.2027 -
Tomás Ferreyra Defensores Unidos Aktiv 106 / 110 40% 1 05.07.2027 -
Ibou Touray Bradford City Aktiv 122 / 109 40% 2 04.07.2027 -
Alberto Rizzo Union Brescia Aktiv 109 / 105 40% 2 04.07.2027 -
Gustavo Turraca All Boys Aktiv 128 / 111 40% 1 04.07.2027 -
Mamadou Traoré Stade Malien Aktiv 108 / 102 40% 1 03.07.2027 -
Enzo Trinidad Colegiales Aktiv 94 / 105 40% 3 02.07.2027 -
Nicola Dalmonte Trento Aktiv 93 / 106 40% 1 02.07.2027 -
Rafael Arace Caracas Aktiv 91 / 105 40% 1 01.07.2027 -
Estanislao Jara Madryn Aktiv 90 / 104 40% 1 30.06.2027 -
Jonathan Cañete Portuguesa Aktiv 96 / 120 40% 1 30.06.2027 -
Alessandro Renzi Arezzo Aktiv 126 / 123 40% 1 30.06.2027 -
Alexandr Yushin Torpedo Moscow Aktiv 89 / 114 40% 2 29.06.2027 -
Mattia Mannini Juve Stabia Verloren 95 / 129 40% 1 29.06.2027 -
Đorđe Pantelić Spartak Kostroma Aktiv 87 / 101 40% 1 28.06.2027 -
Álvaro Veliez San Martín Aktiv 98 / 121 40% 2 27.06.2027 -
Ramazan Gadjimuradov Chelyabinsk Aktiv 135 / 108 40% 1 27.06.2027 -
Nicolás Schiavi Carrarese Aktiv 99 / 125 40% 1 26.06.2027 -
Callum Paterson Milton Keynes Dons Aktiv 94 / 102 40% 1 26.06.2027 -
Franco Pérez Boston River Aktiv 110 / 113 40% 1 25.06.2027 -
Salvatore Aloi Catania Aktiv 98 / 111 40% 1 25.06.2027 -
Yeangel Montero Naxxar Lions Aktiv 97 / 111 40% 1 22.06.2027 -
Danilo Bulevardi Hamrun Spartans Aktiv 95 / 99 40% 1 21.06.2027 -
Mattia Muroni Alcione Milano Aktiv 106 / 101 40% 1 21.06.2027 -
Agustín Benítez Defensores Aktiv 118 / 117 40% 1 20.06.2027 -
Léo Cordeiro Ural Aktiv 133 / 106 40% 1 20.06.2027 -
Matías Bergara Nueva Chicago Aktiv 109 / 107 40% 1 19.06.2027 -
Ilja Ishkov Ural Aktiv 99 / 101 40% 1 15.06.2027 -
Pietro Martino Casertana Aktiv 96 / 110 40% 1 15.06.2027 -
Nicola Murru Gubbio Aktiv 92 / 108 40% 1 14.06.2027 -
Simone Tronchin Südtirol Aktiv 96 / 107 40% 1 14.06.2027 -
Umberto Saracco Pontedera Aktiv 103 / 99 40% 1 24.01.2027 -
Francesco D'Alterio Ternana Aktiv 112 / 115 40% 1 24.01.2027 -
Gianmarco Vannucchi Benevento Aktiv 125 / 107 40% 1 23.01.2027 -
Andrii Bobynets Prykarpattia Aktiv 108 / 91 40% 1 22.01.2027 -
Maksym Tatarenko Chernihiv Aktiv 102 / 105 40% 1 22.01.2027 -
Danylo Kanevtsev Bukovyna Aktiv 76 / 84 40% 1 21.01.2027 -
Edmund Acquah WAFA Aktiv 81 / 79 40% 1 20.01.2027 -
Luca Gemello Perugia Aktiv 113 / 115 40% 1 18.01.2027 -
Ignacio Colombo Zabbar St. Patrick Aktiv 92 / 85 40% 1 18.01.2027 -
Stefano Gori Union Brescia Aktiv 132 / 125 40% 1 17.01.2027 -
Nathan Bishop AFC Wimbledon Aktiv 92 / 100 40% 1 17.01.2027 -
Andrea Zaccagno Torres Aktiv 110 / 113 40% 1 16.01.2027 -
Sam Waller Harrogate Town Aktiv 98 / 91 40% 1 15.01.2027 -
Filippo Manfrin Arzignano Aktiv 102 / 102 40% 1 15.01.2027 -
Gaspar Gentile Alianza Lima Aktiv 125 / 104 40% 1 31.08.2026 -
Ibourahima Baldé Giugliano Aktiv 85 / 107 40% 1 30.08.2026 -
Jesus Giraldo Aktiv 136 / 128 40% 1 29.08.2026 -
Luciano Arriagada Huachipato Aktiv 124 / 110 40% 1 28.08.2026 -
Michael De Marchi Pergolettese Aktiv 99 / 104 40% 1 28.08.2026 -
Brandon Márquez Sarmiento Aktiv 100 / 88 40% 1 27.08.2026 -
Timothy Zechariah Rivers United Aktiv 113 / 99 40% 1 27.08.2026 -
Dylan Lozano Aguilas Doradas Aktiv 86 / 120 40% 1 21.08.2026 -
Oliver Norwood Stockport County Aktiv 113 / 133 40% 1 21.08.2026 -
Ricardo Centurión Racing Aktiv 124 / 102 40% 1 18.08.2026 -
Rubén Rojas Portuguesa Aktiv 85 / 115 40% 1 18.08.2026 -
Felipe Mora San Luis Aktiv 108 / 132 40% 1 18.08.2026 -
Leo Suárez Boston River Aktiv 127 / 133 40% 1 16.08.2026 -
Pietro Iemmello Catanzaro Aktiv 128 / 139 40% 1 15.08.2026 -
Pablo Parra Universidad de Concepcion Aktiv 136 / 116 40% 1 11.08.2026 -
Milton Ramos Agropecuario Argentino Aktiv 135 / 115 40% 1 11.08.2026 -
Dilan Godoy Vélez Aktiv 84 / 106 40% 1 11.08.2026 -
Duncan Watmore Rotherham United Aktiv 103 / 117 40% 1 11.08.2026 -
Junior Messias Genoa Aktiv 121 / 131 40% 1 08.08.2026 -
Raffaele Pucino Monopoli Aktiv 104 / 123 40% 1 06.08.2026 -
Brian Orosco Godoy Cruz Aktiv 97 / 131 40% 1 06.08.2026 -
Ezequiel Aguirre Defensores Aktiv 89 / 98 40% 1 05.08.2026 -
Sebastián Jaurena San Martín SJ Aktiv 132 / 109 40% 1 04.08.2026 -
Augusto Berrondo Tristán Suárez Aktiv 109 / 101 40% 1 03.08.2026 -